UAE413 NZCH-YSSY

Flight info

Callsign UAE413
Flight time N/A
Altitude 38000
Route VANDA N750 PLUGA M636 TESAT
Aircraft B77W/H-SDE1E2E3FGHIJ2J3J4J5M1RWXY/LB1D1

Departure

Time N/A
Airport Christchurch International Airport (NZCH)

Arrival

Time 2026-04-23 01:37
Airport Sydney Kingsford Smith International Airport (YSSY)
Time Latitude Longitude Altitude Speed Heading
2026-04-23 00:38 -37.01166 157.21013 38423 ft 503 kts 302°
2026-04-23 00:39 -36.99212 157.17374 38428 ft 503 kts 302°
2026-04-23 00:39 -36.95304 157.10110 38425 ft 503 kts 302°
2026-04-23 00:40 -36.91392 157.02854 38430 ft 503 kts 302°
2026-04-23 00:40 -36.87501 156.95652 38429 ft 503 kts 302°
2026-04-23 00:41 -36.83584 156.88417 38429 ft 503 kts 302°
2026-04-23 00:41 -36.79663 156.81189 38428 ft 503 kts 302°
2026-04-23 00:42 -36.75733 156.73962 38427 ft 503 kts 302°
2026-04-23 00:42 -36.71803 156.66751 38427 ft 503 kts 302°
2026-04-23 00:43 -36.67892 156.59588 38425 ft 503 kts 302°
2026-04-23 00:43 -36.63951 156.52386 38431 ft 502 kts 302°
2026-04-23 00:44 -36.60006 156.45193 38424 ft 502 kts 302°
2026-04-23 00:44 -36.56062 156.38016 38425 ft 502 kts 302°
2026-04-23 00:45 -36.52141 156.30896 38424 ft 502 kts 302°
2026-04-23 00:45 -36.48190 156.23736 38427 ft 502 kts 302°
2026-04-23 00:46 -36.44230 156.16575 38420 ft 502 kts 302°
2026-04-23 00:46 -36.40270 156.09429 38423 ft 502 kts 302°
2026-04-23 00:47 -36.36300 156.02282 38422 ft 502 kts 302°
2026-04-23 00:47 -36.32353 155.95189 38419 ft 502 kts 302°
2026-04-23 00:48 -36.28380 155.88064 38419 ft 502 kts 302°
2026-04-23 00:48 -36.24385 155.80916 38421 ft 502 kts 302°
2026-04-23 00:49 -36.20406 155.73809 38418 ft 502 kts 302°
2026-04-23 00:49 -36.16445 155.66750 38416 ft 502 kts 302°
2026-04-23 00:50 -36.12460 155.59664 38419 ft 501 kts 302°
2026-04-23 00:50 -36.08464 155.52573 38416 ft 501 kts 302°
2026-04-23 00:51 -36.04477 155.45511 38417 ft 501 kts 302°
2026-04-23 00:51 -36.00494 155.38472 38416 ft 500 kts 302°
2026-04-23 00:52 -35.96504 155.31432 38412 ft 499 kts 302°
2026-04-23 00:52 -35.92518 155.24417 38415 ft 499 kts 302°
2026-04-23 00:53 -35.88562 155.17467 38415 ft 498 kts 302°
2026-04-23 00:53 -35.84583 155.10491 38414 ft 497 kts 302°
2026-04-23 00:54 -35.80608 155.03536 38414 ft 496 kts 302°
2026-04-23 00:54 -35.76633 154.96593 38414 ft 495 kts 302°
2026-04-23 00:55 -35.72661 154.89671 38409 ft 494 kts 302°
2026-04-23 00:55 -35.68701 154.82783 38411 ft 493 kts 302°
2026-04-23 00:56 -35.64739 154.75902 38414 ft 493 kts 302°
2026-04-23 00:56 -35.60772 154.69028 38413 ft 492 kts 302°
2026-04-23 00:57 -35.56806 154.62175 38410 ft 492 kts 302°
2026-04-23 00:57 -35.52838 154.55331 38412 ft 492 kts 302°
2026-04-23 00:58 -35.48891 154.48532 38410 ft 492 kts 302°
2026-04-23 00:58 -35.45565 154.42813 38417 ft 492 kts 302°
2026-04-23 00:59 -35.41588 154.35986 38418 ft 492 kts 302°
2026-04-23 00:59 -35.37628 154.29202 38396 ft 492 kts 302°
2026-04-23 01:00 -35.33642 154.22385 38413 ft 492 kts 302°
2026-04-23 01:00 -35.29650 154.15574 38410 ft 492 kts 302°
2026-04-23 01:01 -35.25655 154.08769 38409 ft 492 kts 302°
2026-04-23 01:01 -35.21656 154.01971 38410 ft 492 kts 302°
2026-04-23 01:02 -35.17652 153.95178 38414 ft 492 kts 302°
2026-04-23 01:02 -35.13644 153.88392 38406 ft 492 kts 302°
2026-04-23 01:02 -35.11641 153.85005 38289 ft 492 kts 302°
2026-04-23 01:03 -35.09635 153.81616 37817 ft 492 kts 302°
2026-04-23 01:03 -35.07642 153.78254 37415 ft 485 kts 301°
2026-04-23 01:03 -35.05667 153.74929 36999 ft 480 kts 301°
2026-04-23 01:03 -35.03722 153.71657 36586 ft 475 kts 301°
2026-04-23 01:04 -35.01814 153.68447 36173 ft 470 kts 301°
2026-04-23 01:04 -34.99898 153.65227 35741 ft 466 kts 301°
2026-04-23 01:04 -34.96123 153.58888 34893 ft 459 kts 301°
2026-04-23 01:05 -34.94249 153.55744 34468 ft 456 kts 300°
2026-04-23 01:05 -34.92391 153.52630 33988 ft 453 kts 300°
2026-04-23 01:05 -34.90545 153.49538 33532 ft 449 kts 301°
2026-04-23 01:05 -34.88714 153.46475 33109 ft 445 kts 301°
2026-04-23 01:06 -34.86898 153.43440 32687 ft 441 kts 301°
2026-04-23 01:06 -34.85100 153.40437 32270 ft 438 kts 301°
2026-04-23 01:06 -34.83310 153.37452 31856 ft 435 kts 301°
2026-04-23 01:06 -34.81530 153.34485 31448 ft 432 kts 301°
2026-04-23 01:07 -34.79766 153.31546 31041 ft 429 kts 302°
2026-04-23 01:07 -34.78016 153.28634 30641 ft 426 kts 302°
2026-04-23 01:07 -34.76273 153.25735 30197 ft 423 kts 302°
2026-04-23 01:07 -34.74536 153.22849 29732 ft 420 kts 302°
2026-04-23 01:08 -34.72816 153.19994 29325 ft 417 kts 302°
2026-04-23 01:08 -34.71110 153.17164 28911 ft 413 kts 302°
2026-04-23 01:08 -34.69411 153.14349 28490 ft 410 kts 302°
2026-04-23 01:08 -34.67732 153.11568 28081 ft 408 kts 302°
2026-04-23 01:09 -34.66056 153.08794 27668 ft 405 kts 302°
2026-04-23 01:09 -34.64411 153.06074 27268 ft 403 kts 302°
2026-04-23 01:09 -34.62757 153.03341 26871 ft 400 kts 302°
2026-04-23 01:09 -34.61112 153.00624 26466 ft 398 kts 302°
2026-04-23 01:10 -34.59474 152.97922 26079 ft 396 kts 302°
2026-04-23 01:10 -34.57843 152.95233 25682 ft 395 kts 302°
2026-04-23 01:10 -34.56215 152.92550 25290 ft 393 kts 303°
2026-04-23 01:10 -34.54591 152.89877 24897 ft 392 kts 303°
2026-04-23 01:11 -34.52975 152.87219 24506 ft 391 kts 303°
2026-04-23 01:11 -34.51363 152.84568 24113 ft 390 kts 303°
2026-04-23 01:11 -34.49771 152.81952 23664 ft 389 kts 303°
2026-04-23 01:11 -34.48164 152.79315 23241 ft 388 kts 303°
2026-04-23 01:12 -34.46562 152.76689 22819 ft 386 kts 303°
2026-04-23 01:12 -34.44968 152.74077 22419 ft 385 kts 303°
2026-04-23 01:12 -34.43381 152.71478 22030 ft 383 kts 303°
2026-04-23 01:12 -34.41797 152.68886 21647 ft 381 kts 303°
2026-04-23 01:13 -34.40222 152.66311 21244 ft 380 kts 304°
2026-04-23 01:13 -34.38649 152.63740 20851 ft 378 kts 304°
2026-04-23 01:13 -34.37084 152.61184 20452 ft 377 kts 304°
2026-04-23 01:13 -34.35542 152.58668 20074 ft 377 kts 304°
2026-04-23 01:14 -34.33978 152.56118 19674 ft 376 kts 304°
2026-04-23 01:14 -34.32423 152.53583 19282 ft 376 kts 304°
2026-04-23 01:14 -34.30865 152.51045 18886 ft 376 kts 304°
2026-04-23 01:14 -34.29306 152.48509 18461 ft 376 kts 304°
2026-04-23 01:15 -34.27748 152.45976 18018 ft 375 kts 304°
2026-04-23 01:15 -34.26188 152.43442 17604 ft 374 kts 305°
2026-04-23 01:15 -34.24637 152.40923 17199 ft 373 kts 305°
2026-04-23 01:15 -34.23090 152.38414 16799 ft 372 kts 305°
2026-04-23 01:16 -34.21548 152.35913 16405 ft 370 kts 305°
2026-04-23 01:16 -34.20010 152.33420 16006 ft 369 kts 305°
2026-04-23 01:16 -34.18471 152.30930 15615 ft 369 kts 305°
2026-04-23 01:16 -34.16940 152.28451 15218 ft 368 kts 305°
2026-04-23 01:17 -34.15431 152.26011 14832 ft 367 kts 305°
2026-04-23 01:17 -34.13905 152.23544 14441 ft 366 kts 306°
2026-04-23 01:17 -34.12377 152.21076 14026 ft 366 kts 306°
2026-04-23 01:17 -34.10855 152.18619 13595 ft 365 kts 306°
2026-04-23 01:18 -34.09330 152.16160 13185 ft 364 kts 306°
2026-04-23 01:18 -34.07822 152.13728 12779 ft 362 kts 306°
2026-04-23 01:18 -34.06316 152.11302 12392 ft 360 kts 306°
2026-04-23 01:18 -34.04815 152.08888 11994 ft 358 kts 306°
2026-04-23 01:19 -34.03587 152.06328 11600 ft 351 kts 289°
2026-04-23 01:19 -34.03043 152.03481 11228 ft 344 kts 274°
2026-04-23 01:19 -34.02814 152.00621 10874 ft 342 kts 274°
2026-04-23 01:19 -34.02555 151.97779 10662 ft 336 kts 275°
2026-04-23 01:20 -34.02289 151.95041 10511 ft 329 kts 275°
2026-04-23 01:20 -34.02020 151.92325 10296 ft 318 kts 275°
2026-04-23 01:20 -34.01761 151.89761 10019 ft 300 kts 275°
2026-04-23 01:20 -34.01515 151.87313 9549 ft 290 kts 275°
2026-04-23 01:21 -34.01273 151.84912 9004 ft 285 kts 275°
2026-04-23 01:21 -34.01034 151.82550 8620 ft 283 kts 275°
2026-04-23 01:21 -34.00793 151.80187 8305 ft 283 kts 275°
2026-04-23 01:21 -34.00554 151.77840 8019 ft 281 kts 275°
2026-04-23 01:22 -34.00320 151.75562 7891 ft 274 kts 275°
2026-04-23 01:22 -34.00086 151.73284 7775 ft 276 kts 275°
2026-04-23 01:22 -33.99848 151.70969 7670 ft 281 kts 275°
2026-04-23 01:22 -33.99607 151.68622 7543 ft 283 kts 275°
2026-04-23 01:23 -33.99365 151.66277 7430 ft 281 kts 276°
2026-04-23 01:23 -33.99124 151.63946 7304 ft 280 kts 276°
2026-04-23 01:23 -33.98883 151.61622 7189 ft 278 kts 276°
2026-04-23 01:23 -33.98644 151.59316 7067 ft 277 kts 276°
2026-04-23 01:24 -33.98405 151.57016 6962 ft 275 kts 276°
2026-04-23 01:24 -33.98167 151.54736 6845 ft 274 kts 276°
2026-04-23 01:24 -33.97929 151.52455 6743 ft 273 kts 276°
2026-04-23 01:24 -33.97693 151.50188 6617 ft 272 kts 276°
2026-04-23 01:25 -33.97456 151.47921 6497 ft 272 kts 276°
2026-04-23 01:25 -33.97220 151.45666 6388 ft 271 kts 276°
2026-04-23 01:25 -33.96987 151.43439 6273 ft 271 kts 276°
2026-04-23 01:25 -33.96750 151.41189 6160 ft 271 kts 276°
2026-04-23 01:26 -33.96487 151.38953 6049 ft 267 kts 283°
2026-04-23 01:26 -33.95658 151.36956 5853 ft 270 kts 312°
2026-04-23 01:26 -33.94195 151.35553 5683 ft 270 kts 328°
2026-04-23 01:26 -33.92567 151.34392 5464 ft 274 kts 331°
2026-04-23 01:27 -33.90904 151.33263 5259 ft 274 kts 331°
2026-04-23 01:27 -33.89248 151.32155 5022 ft 270 kts 332°
2026-04-23 01:27 -33.87615 151.31069 4824 ft 266 kts 332°
2026-04-23 01:27 -33.86006 151.30004 4615 ft 262 kts 332°
2026-04-23 01:28 -33.84416 151.28951 4418 ft 260 kts 332°
2026-04-23 01:28 -33.82844 151.27909 4254 ft 256 kts 332°
2026-04-23 01:28 -33.81301 151.26887 4072 ft 250 kts 332°
2026-04-23 01:28 -33.79777 151.25967 3935 ft 242 kts 338°
2026-04-23 01:29 -33.78219 151.25362 3806 ft 234 kts 346°
2026-04-23 01:29 -33.76680 151.24901 3768 ft 221 kts 347°
2026-04-23 01:29 -33.75231 151.24439 3749 ft 216 kts 337°
2026-04-23 01:29 -33.74039 151.23363 3726 ft 212 kts 310°
2026-04-23 01:30 -33.73135 151.22008 3737 ft 204 kts 306°
2026-04-23 01:30 -33.72288 151.20671 3821 ft 200 kts 306°
2026-04-23 01:30 -33.71440 151.19336 3720 ft 199 kts 306°
2026-04-23 01:30 -33.70849 151.17891 3673 ft 192 kts 273°
2026-04-23 01:31 -33.71079 151.16354 3709 ft 188 kts 244°
2026-04-23 01:31 -33.71516 151.14833 3751 ft 198 kts 251°
2026-04-23 01:31 -33.72026 151.13337 3703 ft 191 kts 226°
2026-04-23 01:31 -33.73115 151.12569 3709 ft 182 kts 185°
2026-04-23 01:32 -33.74367 151.12618 3599 ft 183 kts 173°
2026-04-23 01:32 -33.75621 151.12769 3457 ft 177 kts 170°
2026-04-23 01:32 -33.76783 151.13000 3238 ft 162 kts 167°
2026-04-23 01:32 -33.77818 151.13245 3033 ft 141 kts 166°
2026-04-23 01:33 -33.78755 151.13482 2891 ft 139 kts 165°
2026-04-23 01:33 -33.79709 151.13731 2711 ft 140 kts 165°
2026-04-23 01:33 -33.80653 151.13974 2497 ft 135 kts 165°
2026-04-23 01:33 -33.81563 151.14210 2318 ft 133 kts 166°
2026-04-23 01:34 -33.82479 151.14448 2165 ft 136 kts 167°
2026-04-23 01:34 -33.83409 151.14688 1967 ft 137 kts 167°
2026-04-23 01:34 -33.84323 151.14925 1759 ft 135 kts 166°
2026-04-23 01:34 -33.85230 151.15160 1614 ft 133 kts 167°
2026-04-23 01:35 -33.86129 151.15392 1438 ft 132 kts 166°
2026-04-23 01:35 -33.87035 151.15629 1256 ft 135 kts 165°
2026-04-23 01:35 -33.87959 151.15867 1045 ft 136 kts 166°
2026-04-23 01:35 -33.88868 151.16105 895 ft 135 kts 165°
2026-04-23 01:36 -33.89776 151.16340 701 ft 130 kts 164°
2026-04-23 01:36 -33.90653 151.16569 520 ft 131 kts 167°
2026-04-23 01:36 -33.91551 151.16799 365 ft 130 kts 167°
2026-04-23 01:36 -33.92441 151.17036 158 ft 132 kts 166°
2026-04-23 01:37 -33.93327 151.17262 36 ft 124 kts 166°
2026-04-23 01:37 -33.94042 151.17448 31 ft 85 kts 168°
2026-04-23 01:37 -33.94403 151.17542 35 ft 45 kts 167°
2026-04-23 01:37 -33.94619 151.17597 35 ft 21 kts 168°
2026-04-23 01:38 -33.94764 151.17634 34 ft 21 kts 168°
2026-04-23 01:38 -33.94923 151.17650 33 ft 28 kts 180°
2026-04-23 01:38 -33.95111 151.17613 33 ft 20 kts 214°
2026-04-23 01:38 -33.95084 151.17508 34 ft 17 kts 345°
2026-04-23 01:39 -33.94969 151.17485 34 ft 17 kts 351°
2026-04-23 01:39 -33.94855 151.17461 34 ft 17 kts 343°
2026-04-23 01:39 -33.94742 151.17424 35 ft 17 kts 346°
2026-04-23 01:39 -33.94628 151.17393 35 ft 17 kts 348°
2026-04-23 01:40 -33.94513 151.17365 35 ft 17 kts 348°
2026-04-23 01:40 -33.94399 151.17335 35 ft 17 kts 347°
2026-04-23 01:40 -33.94284 151.17305 35 ft 17 kts 347°
2026-04-23 01:40 -33.94155 151.17271 33 ft 20 kts 348°
2026-04-23 01:41 -33.94028 151.17238 34 ft 16 kts 348°
2026-04-23 01:41 -33.93986 151.17168 34 ft 11 kts 262°
2026-04-23 01:41 -33.94007 151.17074 34 ft 12 kts 254°
2026-04-23 01:41 -33.94034 151.16963 35 ft 17 kts 254°
2026-04-23 01:42 -33.94056 151.16852 35 ft 13 kts 273°
2026-04-23 01:42 -33.93983 151.16794 34 ft 13 kts 347°
2026-04-23 01:42 -33.93911 151.16768 35 ft 3 kts 343°
2026-04-23 01:42 -33.93889 151.16761 35 ft 4 kts 343°
2026-04-23 01:43 -33.93863 151.16764 35 ft 4 kts 29°
2026-04-23 01:43 -33.93842 151.16792 35 ft 5 kts 60°
2026-04-23 01:43 -33.93829 151.16834 35 ft 6 kts 72°
2026-04-23 01:43 -33.93828 151.16839 35 ft 0 kts 72°